Regional Weather Roundup
Issued by NWS

Home | Current Version | Previous Version | Text Only | Print | Product List | Glossary On
Versions: 1 2 3 4 5 6 7 8 9 10 11 12 13 14 15 16 17 18 19 20 21 22 23 24 25 26 27 28 29 30 31 32 33 34 35 36 37 38 39 40 41 42 43 44 45 46 47 48 49 50
000
ASCA42 TJSJ 060510
RWRPR
PUERTO RICO/U.S. VIRGIN ISLANDS HOURLY WEATHER ROUNDUP
NATIONAL WEATHER SERVICE SAN JUAN PR
100 AM AST MON JUL 06 2015

PRZ001-004-060600-
PUERTO RICO

CITY           SKY/WX    TMP DP  RH WIND       PRES   REMARKS
SAN JUAN LMM   PTCLDY    81  75  83 E12       30.08F
PONCE          CLEAR     82  72  69 E7        30.01F
AGUADILLA      CLOUDY    81  73  78 E13G21    30.09F
$$

PRZ006-007-060600-
U.S. VIRGIN ISLANDS

CITY           SKY/WX    TMP DP  RH WIND       PRES   REMARKS
CHARLOTTE AMA  CLOUDY    82  73  74 NE13      30.07F
CHRISTIANSTED  PTCLDY    81  72  74 NE8       30.06F
$$

HOURLY WEATHER ROUNDUP FOR THE NEWS MEDIA

CITY           SKY/WX    TMP DP  RH WIND       PRES   REMARKS
ORLANDO        CLOUDY    74  74 100 S7        30.16F
NEW YORK       MOCLDY    71  66  84 S5        30.16S
NEWARK         MOCLDY    73  67  81 S5        30.15R
CHICAGO        CLEAR     69  61  75 S7        30.00S
HARTFORD       CLEAR     64  62  93 CALM      30.14R
BOSTON         CLEAR     72  62  71 SW8       30.13S
DALLAS         PTCLDY    85  71  63 S16       29.98S HX  90
PHILADELPHIA   CLOUDY    73  67  81 S6        30.15F
LOS ANGELES    CLOUDY    64  59  83 W9        30.02R
WASHINGTON DC  CLOUDY    73  72  94 CALM      30.12F



USA.gov is the U.S. government's official web portal to all federal, state and local government web resources and services.